Location: Unspecified
(0.0000°N, 0.0000°E)
Time: 16:29:35
(UTC+00:00)

deb r/b Ablestar - Pass Details

Date: 12 March 2026
Orbit: 726 x 907 km, 66.9° (Epoch: 18 April)

Event Time Altitude Azimuth Distance (km) Brightness Sun altitude
Rises 20:59:46 0° 218° (SW) 3,408 ? -42.5°
Reaches altitude 10° 21:02:25 10° 228° (SW) 2,497 ? -43.1°
Enters shadow 21:03:21 14° 233° (SW) 2,209 ? -43.3°
